TIANZHOU-9

Last updated on Sun Jan 18 2026 00:02:09 GMT+0000 (Coordinated Universal Time)

1 64786U 25149A 26017.43920641 .00019264 00000+0 22918-3 0 9993 2 64786 41.4655 159.7316 0011200 302.9743 57.0018 15.60598009255301
UTC large
Height (km)
Speed (km/s)
/
Latitude / Longitude
Inclination (degrees)
Orbital Period (minutes)
Azimuth
Elevation
Range (km)
Doppler Factor

Next 0 passes for location: London (51.5072 / 0.1276)

Sorry there are no passes over London.